Location: Bennemühlen
(52.5740°N, 9.7135°E)
Time: 17:14:14
(UTC+00:00)

Tiros 1 despin weight - Pass Details

Date: 17 February 2026
Orbit: 556 x 593 km, 48.2° (Epoch: 11 March)

Event Time Altitude Azimuth Distance (km) Brightness Sun altitude
Rises 15:25:43 0° 229° (SW) 2,732 ? 8.9°
Reaches altitude 10° 15:28:10 10° 219° (SW) 1,836 ? 8.6°
Maximum altitude 15:31:48 29° 158° (SSE) 1,026 ? 8.2°
Drops below altitude 10° 15:35:27 10° 98° (E) 1,838 ? 7.7°
Sets 15:37:54 0° 87° (E) 2,736 ? 7.4°
